{"data":{"norad_id":66513,"epoch":"2026-09-20T12:27:01.979424Z","epoch_age_seconds":87449,"freshness":"FRESH","line1":"1 66513U 25263AE  26263.51877291  .00010726  00000+0  39858-3 0  9999","line2":"2 66513  43.0077 330.5628 0001905 281.6913  78.3725 15.27593265 48690","mean_motion":15.27593265,"eccentricity":0.0001905,"inclination_deg":43.0077,"raan_deg":330.5628,"arg_perigee_deg":281.6913,"mean_anomaly_deg":78.3725,"bstar":0.00039858,"rev_number":4869,"period_min":94.26593013946,"perigee_km":481.70232776037,"apogee_km":484.31642452968,"semimajor_km":6861.146376145,"source":"CELESTRAK","updated_at":"2026-09-21T09:00:35.925001Z"}}